Weather History for Eagle River, WI

Change the Weather History Date:

Monday, October 8, 2012

  Actual Average Record
Temperature  
Mean Temperature 40 °F -  
Max Temperature 51 °F 52 °F 80 °F (2010)
Min Temperature 30 °F 35 °F 28 °F (1998)
Degree Days  
Heating Degree Days 24    
Moisture  
Dew Point 26 °F    
Average Humidity 53    
Maximum Humidity 81    
Minimum Humidity 40    
Precipitation  
Precipitation 0.01 in - - ()
Sea Level Pressure  
Sea Level Pressure 29.78 in    
Wind  
Wind Speed 6 mph (SSW)    
Max Wind Speed 16 mph    
Max Gust Speed 24 mph    
Visibility 10 miles    
Events Rain    
Averages and records for this station are not official NWS values.
T = Trace of Precipitation, MM = Missing Value Source: NWS Daily Summary

Daily Weather History Graph

Daily Weather History Graph

Search for Another Location

Airport:

Trip Planner

Search our weather history database for the weather conditions in past years. The results will help you decide how hot, cold, wet, or windy it might be!

Date:

Astronomy

Oct. 08, 2012 Rise Set
Actual Time 7:05 AM CDT 6:22 PM CDT
Civil Twilight 6:35 AM CDT 6:52 PM CDT
Nautical Twilight 6:00 AM CDT 7:27 PM CDT
Astronomical Twilight 5:25 AM CDT 8:01 PM CDT
Moon No Moon Rise 2:31 PM CDT (10/8)
Length of Visible Light 12h 17m
Length of Day
11h 17m
Last Quarter, 46% of the Moon is Illuminated
Oct 8
Last Quarter
Oct 15
New
Oct 21
First Quarter
Oct 29
Full
Nov 6
Last Quarter

Hourly Weather History & Observations

Time (CDT) Temp. Windchill Dew Point Humidity Pressure Visibility Wind Dir Wind Speed Gust Speed Precip Events Conditions
12:15 AM 32.0 °F 28.7 °F 17.6 °F 55% 29.92 in 10.0 mi SSW 3.5 mph - N/A   Clear
12:35 AM 32.0 °F 27.5 °F 17.6 °F 55% 29.92 in 10.0 mi SSW 4.6 mph - N/A   Clear
12:55 AM 32.0 °F 28.7 °F 17.6 °F 55% 29.92 in 10.0 mi SSW 3.5 mph - N/A   Clear
1:15 AM 32.0 °F 27.5 °F 17.6 °F 55% 29.92 in 10.0 mi SSW 4.6 mph - N/A   Clear
1:35 AM 32.0 °F 28.7 °F 17.6 °F 55% 29.92 in 10.0 mi SSW 3.5 mph - N/A   Clear
1:55 AM 32.0 °F 28.7 °F 17.6 °F 55% 29.91 in 10.0 mi SSW 3.5 mph - N/A   Clear
2:15 AM 32.0 °F 28.7 °F 17.6 °F 55% 29.91 in 10.0 mi SSW 3.5 mph - N/A   Clear
2:35 AM 32.0 °F 27.5 °F 17.6 °F 55% 29.90 in 10.0 mi SSW 4.6 mph - N/A   Clear
2:55 AM 32.0 °F 28.7 °F 17.6 °F 55% 29.89 in 10.0 mi SSW 3.5 mph - N/A   Clear
3:15 AM 32.0 °F 28.7 °F 17.6 °F 55% 29.89 in 10.0 mi SSW 3.5 mph - N/A   Clear
3:35 AM 32.0 °F 28.7 °F 17.6 °F 55% 29.88 in 10.0 mi SSW 3.5 mph - N/A   Clear
3:55 AM 32.0 °F 28.7 °F 17.6 °F 55% 29.88 in 10.0 mi SSW 3.5 mph - N/A   Clear
4:15 AM 32.0 °F 28.7 °F 17.6 °F 55% 29.88 in 10.0 mi SSW 3.5 mph - N/A   Clear
4:35 AM 32.0 °F 28.7 °F 19.4 °F 60% 29.88 in 10.0 mi South 3.5 mph - N/A   Clear
4:55 AM 32.0 °F - 19.4 °F 60% 29.88 in 10.0 mi Calm Calm - N/A   Clear
5:15 AM 30.2 °F 26.7 °F 19.4 °F 64% 29.87 in 10.0 mi South 3.5 mph - N/A   Clear
5:35 AM 30.2 °F 26.7 °F 19.4 °F 64% 29.87 in 10.0 mi SSE 3.5 mph - N/A   Clear
5:55 AM 30.2 °F - 19.4 °F 64% 29.86 in 10.0 mi Calm Calm - N/A   Clear
6:15 AM 30.2 °F 26.7 °F 19.4 °F 64% 29.86 in 10.0 mi SSE 3.5 mph - N/A   Clear
6:35 AM 30.2 °F 26.7 °F 19.4 °F 64% 29.86 in 10.0 mi South 3.5 mph - N/A   Clear
6:55 AM 30.2 °F 25.4 °F 19.4 °F 64% 29.85 in 10.0 mi SSE 4.6 mph - N/A   Clear
7:15 AM 30.2 °F 25.4 °F 19.4 °F 64% 29.85 in 10.0 mi South 4.6 mph - N/A   Clear
7:35 AM 30.2 °F 26.7 °F 19.4 °F 64% 29.85 in 10.0 mi South 3.5 mph - N/A   Clear
7:55 AM 30.2 °F - 19.4 °F 64% 29.84 in 10.0 mi Calm Calm - N/A   Clear
8:15 AM 32.0 °F - 21.2 °F 64% 29.85 in 10.0 mi Calm Calm - N/A   Clear
8:35 AM 33.8 °F 29.6 °F 21.2 °F 60% 29.84 in 10.0 mi South 4.6 mph - N/A   Clear
8:55 AM 35.6 °F 30.7 °F 21.2 °F 56% 29.84 in 10.0 mi South 5.8 mph - N/A   Clear
9:15 AM 35.6 °F 29.9 °F 23.0 °F 60% 29.83 in 10.0 mi SSW 6.9 mph - N/A   Clear
9:55 AM 41.0 °F 35.8 °F 23.0 °F 49% 29.82 in 10.0 mi SSW 8.1 mph - N/A   Clear
10:15 AM 42.8 °F 38.6 °F 24.8 °F 49% 29.82 in 10.0 mi South 6.9 mph - N/A   Clear
10:35 AM 44.6 °F 39.7 °F 24.8 °F 46% 29.81 in 10.0 mi South 9.2 mph - N/A   Mostly Cloudy
10:55 AM 46.4 °F 41.5 °F 24.8 °F 43% 29.80 in 10.0 mi SSW 10.4 mph 16.1 mph N/A   Scattered Clouds
11:15 AM 46.4 °F 41.5 °F 26.6 °F 46% 29.79 in 10.0 mi SSW 10.4 mph - N/A   Mostly Cloudy
11:35 AM 48.2 °F - 26.6 °F 43% 29.79 in 10.0 mi SSW 10.4 mph 17.3 mph N/A   Overcast
11:55 AM 50.0 °F - 26.6 °F 40% 29.78 in 10.0 mi SW 12.7 mph 21.9 mph N/A   Mostly Cloudy
12:15 PM 50.0 °F - 26.6 °F 40% 29.78 in 10.0 mi SSW 15.0 mph 20.7 mph N/A   Scattered Clouds
12:35 PM 50.0 °F - 26.6 °F 40% 29.77 in 10.0 mi SW 15.0 mph 20.7 mph N/A   Scattered Clouds
12:55 PM 50.0 °F - 26.6 °F 40% 29.76 in 10.0 mi SW 16.1 mph 23.0 mph N/A   Scattered Clouds
1:15 PM 48.2 °F - 26.6 °F 43% 29.76 in 10.0 mi SSW 11.5 mph 21.9 mph N/A   Mostly Cloudy
1:35 PM 48.2 °F - 28.4 °F 46% 29.75 in 10.0 mi SSW 8.1 mph 16.1 mph N/A   Overcast
1:55 PM 48.2 °F - 28.4 °F 46% 29.74 in 10.0 mi SSW 5.8 mph - N/A   Overcast
2:15 PM 48.2 °F - 28.4 °F 46% 29.73 in 10.0 mi South 9.2 mph 18.4 mph N/A   Overcast
2:35 PM 48.2 °F - 30.2 °F 50% 29.71 in 10.0 mi South 8.1 mph 17.3 mph N/A Rain Light Rain
3:15 PM 50.0 °F - 30.2 °F 47% 29.70 in 10.0 mi South 10.4 mph 19.6 mph N/A   Overcast
3:35 PM 50.0 °F - 30.2 °F 47% 29.69 in 10.0 mi South 12.7 mph 19.6 mph N/A   Overcast
3:55 PM 50.0 °F - 30.2 °F 47% 29.69 in 10.0 mi South 11.5 mph 23.0 mph N/A   Overcast
4:15 PM 50.0 °F - 30.2 °F 47% 29.68 in 10.0 mi South 9.2 mph 23.0 mph N/A   Overcast
4:35 PM 50.0 °F - 30.2 °F 47% 29.68 in 10.0 mi South 8.1 mph 19.6 mph N/A   Overcast
4:55 PM 50.0 °F - 30.2 °F 47% 29.68 in 10.0 mi South 10.4 mph 16.1 mph N/A   Overcast
5:15 PM 50.0 °F - 32.0 °F 50% 29.67 in 10.0 mi South 5.8 mph - N/A   Mostly Cloudy
5:35 PM 51.8 °F - 32.0 °F 47% 29.67 in 10.0 mi South 6.9 mph 16.1 mph N/A   Overcast
5:55 PM 51.8 °F - 32.0 °F 47% 29.67 in 10.0 mi SSW 10.4 mph 16.1 mph N/A   Overcast
6:15 PM 50.0 °F - 33.8 °F 54% 29.67 in 10.0 mi SSW 10.4 mph 21.9 mph N/A Rain Light Rain
6:35 PM 50.0 °F - 33.8 °F 54% 29.67 in 10.0 mi SSW 11.5 mph 24.2 mph N/A Rain Light Rain
6:55 PM 48.2 °F - 37.4 °F 66% 29.67 in 10.0 mi SSW 12.7 mph 24.2 mph N/A Rain Light Rain
7:35 PM 48.2 °F - 37.4 °F 66% 29.67 in 10.0 mi SSW 6.9 mph - 0.01 in Rain Light Rain
7:55 PM 50.0 °F - 35.6 °F 58% 29.66 in 10.0 mi South 9.2 mph - 0.01 in   Light Drizzle
8:15 PM 50.0 °F - 35.6 °F 58% 29.66 in 10.0 mi SSW 6.9 mph - N/A Rain Light Rain
8:55 PM 51.8 °F - 33.8 °F 50% 29.65 in 10.0 mi SSW 11.5 mph 18.4 mph N/A Rain Light Rain
9:15 PM 51.8 °F - 33.8 °F 50% 29.64 in 10.0 mi South 5.8 mph - N/A   Overcast
9:35 PM 51.8 °F - 32.0 °F 47% 29.64 in 10.0 mi SSW 6.9 mph - N/A Rain Light Rain
9:55 PM 51.8 °F - 32.0 °F 47% 29.65 in 10.0 mi SSW 8.1 mph - N/A   Overcast
10:15 PM 51.8 °F - 32.0 °F 47% 29.65 in 10.0 mi SSW 9.2 mph 21.9 mph N/A   Overcast
10:35 PM 51.8 °F - 32.0 °F 47% 29.65 in 10.0 mi SW 13.8 mph 21.9 mph N/A   Overcast
10:55 PM 51.8 °F - 32.0 °F 47% 29.65 in 10.0 mi SW 10.4 mph 19.6 mph N/A   Overcast
11:35 PM 48.2 °F - 37.4 °F 66% 29.66 in 10.0 mi WSW 10.4 mph 21.9 mph N/A Rain Light Rain
11:55 PM 46.4 °F 43.5 °F 41.0 °F 81% 29.66 in 10.0 mi West 5.8 mph - N/A Rain Light Rain